Location: Burera
(21.3780°N, 81.9534°E)
Time: 10:01:17
(UTC+00:00)

Cosmos 1825 - Pass Details

Date: 13 August 2020
Orbit: 502 x 508 km, 82.5° (Epoch: 21 September)

Event Time Altitude Azimuth Distance (km) Brightness Sun altitude
Rises 23:14:11 0° 9° (N) 2,594 6.2 -13.2°
Reaches altitude 10° 23:16:29 10° 20° (NNE) 1,707 5.4 -12.7°
Maximum altitude 23:19:48 30° 83° (E) 918 4.3 -12.0°
Drops below altitude 10° 23:23:07 10° 145° (SE) 1,701 5.0 -11.3°
Sets 23:25:24 0° 156° (SSE) 2,582 5.8 -10.8°
